Time,TemperatureF,DewpointF,PressureIn,WindDirection,WindDirectionDegrees,WindSpeedMPH,WindSpeedGustMPH,Humidity,HourlyPrecipIn,Conditions,Clouds,dailyrainin,SoftwareType,DateUTC
2013-01-20 00:04:00,38.3,11.7,29.03,NNW,336,0.0,0.0,33,0.00,,,0.00,VWS V14.01,2013-01-20 05:04:00,
2013-01-20 00:07:00,38.3,11.7,29.03,NNW,341,0.0,3.1,33,0.00,,,0.00,VWS V14.01,2013-01-20 05:07:00,
2013-01-20 00:10:00,38.3,12.4,29.03,North,9,0.0,0.0,34,0.00,,,0.00,VWS V14.01,2013-01-20 05:10:00,
2013-01-20 00:15:00,38.5,11.9,29.03,ESE,121,0.0,0.0,33,0.00,,,0.00,VWS V14.01,2013-01-20 05:15:00,
2013-01-20 00:21:00,38.3,12.4,29.03,West,273,0.0,0.0,34,0.00,,,0.00,VWS V14.01,2013-01-20 05:21:00,
2013-01-20 00:27:00,38.1,12.2,29.03,South,176,0.0,0.0,34,0.00,,,0.00,VWS V14.01,2013-01-20 05:27:00,
2013-01-20 00:32:00,38.1,12.2,29.03,NNW,341,0.0,4.5,34,0.00,,,0.00,VWS V14.01,2013-01-20 05:32:00,
2013-01-20 00:38:00,38.5,11.9,29.03,NE,45,0.0,0.0,33,0.00,,,0.00,VWS V14.01,2013-01-20 05:38:00,
2013-01-20 00:43:00,38.5,11.9,29.03,NNW,339,0.0,3.1,33,0.00,,,0.00,VWS V14.01,2013-01-20 05:43:00,
2013-01-20 00:49:00,38.5,11.9,29.00,NNW,332,0.0,3.6,33,0.00,,,0.00,VWS V14.01,2013-01-20 05:49:00,
2013-01-20 00:54:00,38.1,12.2,29.00,NNW,347,0.0,0.0,34,0.00,,,0.00,VWS V14.01,2013-01-20 05:54:00,
2013-01-20 01:00:00,37.8,11.9,29.00,NE,53,0.0,0.0,34,0.00,,,0.00,VWS V14.01,2013-01-20 06:00:00,
2013-01-20 01:06:00,37.6,12.4,29.00,NNW,339,0.0,3.1,35,0.00,,,0.00,VWS V14.01,2013-01-20 06:06:00,
2013-01-20 01:11:00,37.6,12.4,29.00,NNE,20,0.0,5.4,35,0.00,,,0.00,VWS V14.01,2013-01-20 06:11:00,
2013-01-20 01:17:00,37.6,13.1,29.00,North,351,0.0,0.0,36,0.00,,,0.00,VWS V14.01,2013-01-20 06:17:00,
2013-01-20 01:22:00,37.6,13.1,29.00,NNW,345,3.6,5.4,36,0.00,,,0.00,VWS V14.01,2013-01-20 06:22:00,
2013-01-20 01:28:00,37.6,13.1,29.00,NNW,346,4.0,4.0,36,0.00,,,0.00,VWS V14.01,2013-01-20 06:28:00,
2013-01-20 01:34:00,37.6,13.1,29.00,NNW,341,0.0,0.0,36,0.00,,,0.00,VWS V14.01,2013-01-20 06:34:00,
2013-01-20 01:40:00,37.6,13.7,29.00,NW,311,0.0,5.4,37,0.00,,,0.00,VWS V14.01,2013-01-20 06:40:00,
2013-01-20 01:45:00,37.6,13.7,29.00,NNW,335,0.0,2.7,37,0.00,,,0.00,VWS V14.01,2013-01-20 06:45:00,
2013-01-20 01:51:00,37.4,14.1,29.00,East,92,0.0,0.0,38,0.00,,,0.00,VWS V14.01,2013-01-20 06:51:00,
2013-01-20 01:57:00,37.4,14.1,29.00,West,269,0.0,0.0,38,0.00,,,0.00,VWS V14.01,2013-01-20 06:57:00,
2013-01-20 02:02:00,37.4,14.1,29.00,ESE,114,0.0,3.1,38,0.00,,,0.00,VWS V14.01,2013-01-20 07:02:00,
2013-01-20 02:08:00,37.4,14.1,29.00,SSW,194,0.0,0.0,38,0.00,,,0.00,VWS V14.01,2013-01-20 07:08:00,
2013-01-20 02:13:00,37.4,14.1,29.00,North,1,0.0,0.0,38,0.00,,,0.00,VWS V14.01,2013-01-20 07:13:00,
2013-01-20 02:19:00,37.4,14.1,29.00,NNE,15,0.0,0.0,38,0.00,,,0.00,VWS V14.01,2013-01-20 07:19:00,
2013-01-20 02:24:00,37.2,14.0,29.00,NNW,334,0.0,0.0,38,0.00,,,0.00,VWS V14.01,2013-01-20 07:24:00,
2013-01-20 02:30:00,37.2,14.0,28.97,North,0,0.0,0.0,38,0.00,,,0.00,VWS V14.01,2013-01-20 07:30:00,
2013-01-20 02:35:00,37.0,13.8,28.97,ENE,69,0.0,0.0,38,0.00,,,0.00,VWS V14.01,2013-01-20 07:35:00,
2013-01-20 02:41:00,36.9,14.2,28.97,North,2,0.0,0.0,39,0.00,,,0.00,VWS V14.01,2013-01-20 07:41:00,
2013-01-20 02:47:00,36.9,14.2,28.97,NW,310,2.7,4.5,39,0.00,,,0.00,VWS V14.01,2013-01-20 07:47:00,
2013-01-20 02:52:00,36.7,14.1,28.97,WSW,245,0.0,0.0,39,0.00,,,0.00,VWS V14.01,2013-01-20 07:52:00,
2013-01-20 02:58:00,36.5,13.9,28.97,NW,324,0.0,5.4,39,0.00,,,0.00,VWS V14.01,2013-01-20 07:58:00,
2013-01-20 03:04:00,36.5,14.5,28.97,NE,49,0.0,4.0,40,0.00,,,0.00,VWS V14.01,2013-01-20 08:04:00,
2013-01-20 03:09:00,36.3,14.3,28.97,NNW,345,0.0,4.5,40,0.00,,,0.00,VWS V14.01,2013-01-20 08:09:00,
2013-01-20 03:14:00,36.3,14.3,28.97,North,4,0.0,2.7,40,0.00,,,0.00,VWS V14.01,2013-01-20 08:14:00,
2013-01-20 03:20:00,36.1,14.2,28.97,North,1,0.0,0.0,40,0.00,,,0.00,VWS V14.01,2013-01-20 08:20:00,
2013-01-20 03:25:00,36.0,14.6,28.97,North,351,0.0,3.1,41,0.00,,,0.00,VWS V14.01,2013-01-20 08:25:00,
2013-01-20 03:31:00,36.1,14.7,28.97,NE,40,0.0,0.0,41,0.00,,,0.00,VWS V14.01,2013-01-20 08:31:00,
2013-01-20 03:37:00,36.0,14.0,28.97,NE,40,0.0,0.0,40,0.00,,,0.00,VWS V14.01,2013-01-20 08:37:00,
2013-01-20 03:42:00,35.8,14.4,28.97,NE,43,0.0,0.0,41,0.00,,,0.00,VWS V14.01,2013-01-20 08:42:00,
2013-01-20 03:48:00,35.8,14.4,28.94,NE,37,0.0,0.0,41,0.00,,,0.00,VWS V14.01,2013-01-20 08:48:00,
2013-01-20 03:53:00,35.6,14.2,28.94,North,351,0.0,0.0,41,0.00,,,0.00,VWS V14.01,2013-01-20 08:53:00,
2013-01-20 03:59:00,35.4,14.1,28.94,NNW,346,0.0,0.0,41,0.00,,,0.00,VWS V14.01,2013-01-20 08:59:00,
2013-01-20 04:04:00,35.4,14.6,28.94,NNW,347,0.0,0.0,42,0.00,,,0.00,VWS V14.01,2013-01-20 09:04:00,
2013-01-20 04:10:00,35.4,14.6,28.94,WNW,290,0.0,0.0,42,0.00,,,0.00,VWS V14.01,2013-01-20 09:10:00,
2013-01-20 04:15:00,35.2,14.5,28.94,WNW,303,0.0,0.0,42,0.00,,,0.00,VWS V14.01,2013-01-20 09:15:00,
2013-01-20 04:21:00,35.1,14.3,28.94,WNW,303,0.0,0.0,42,0.00,,,0.00,VWS V14.01,2013-01-20 09:21:00,
2013-01-20 04:27:00,35.1,14.3,28.94,NNW,347,0.0,0.0,42,0.00,,,0.00,VWS V14.01,2013-01-20 09:27:00,
2013-01-20 04:32:00,34.9,14.1,28.91,North,9,0.0,0.0,42,0.00,,,0.00,VWS V14.01,2013-01-20 09:32:00,
2013-01-20 04:38:00,34.7,14.5,28.91,NNW,346,0.0,0.0,43,0.00,,,0.00,VWS V14.01,2013-01-20 09:38:00,
2013-01-20 04:43:00,34.7,14.5,28.91,NNW,346,0.0,0.0,43,0.00,,,0.00,VWS V14.01,2013-01-20 09:43:00,
2013-01-20 04:49:00,34.5,14.3,28.91,NNW,345,0.0,0.0,43,0.00,,,0.00,VWS V14.01,2013-01-20 09:49:00,
2013-01-20 04:54:00,34.5,14.3,28.91,SW,228,0.0,0.0,43,0.00,,,0.00,VWS V14.01,2013-01-20 09:54:00,
2013-01-20 05:00:00,34.5,14.9,28.91,WNW,290,0.0,0.0,44,0.00,,,0.00,VWS V14.01,2013-01-20 10:00:00,
2013-01-20 05:05:00,34.5,14.9,28.91,NNE,14,0.0,0.0,44,0.00,,,0.00,VWS V14.01,2013-01-20 10:05:00,
2013-01-20 05:11:00,34.3,14.7,28.91,North,351,0.0,0.0,44,0.00,,,0.00,VWS V14.01,2013-01-20 10:11:00,
2013-01-20 05:17:00,34.3,14.7,28.91,North,3,0.0,0.0,44,0.00,,,0.00,VWS V14.01,2013-01-20 10:17:00,
2013-01-20 05:22:00,34.5,14.9,28.91,NNE,13,0.0,0.0,44,0.00,,,0.00,VWS V14.01,2013-01-20 10:22:00,
2013-01-20 05:28:00,34.5,14.3,28.91,North,0,0.0,0.0,43,0.00,,,0.00,VWS V14.01,2013-01-20 10:28:00,
2013-01-20 05:33:00,34.5,14.3,28.91,North,0,0.0,0.0,43,0.00,,,0.00,VWS V14.01,2013-01-20 10:33:00,
2013-01-20 05:39:00,34.3,14.2,28.91,NNW,333,0.0,0.0,43,0.00,,,0.00,VWS V14.01,2013-01-20 10:39:00,
2013-01-20 05:44:00,34.3,14.2,28.88,NW,309,0.0,0.0,43,0.00,,,0.00,VWS V14.01,2013-01-20 10:44:00,
2013-01-20 05:50:00,34.3,14.2,28.88,North,4,0.0,0.0,43,0.00,,,0.00,VWS V14.01,2013-01-20 10:50:00,
2013-01-20 05:55:00,34.3,14.2,28.88,ENE,66,0.0,0.0,43,0.00,,,0.00,VWS V14.01,2013-01-20 10:55:00,
2013-01-20 06:01:00,34.3,14.2,28.88,North,11,0.0,4.0,43,0.00,,,0.00,VWS V14.01,2013-01-20 11:01:00,
2013-01-20 06:07:00,34.3,14.2,28.88,North,0,0.0,0.0,43,0.00,,,0.00,VWS V14.01,2013-01-20 11:07:00,
2013-01-20 06:12:00,34.5,14.3,28.88,North,1,0.0,0.0,43,0.00,,,0.00,VWS V14.01,2013-01-20 11:12:00,
2013-01-20 06:18:00,34.5,13.8,28.88,North,351,0.0,3.1,42,0.00,,,0.00,VWS V14.01,2013-01-20 11:18:00,
2013-01-20 06:23:00,34.5,13.8,28.88,North,3,0.0,0.0,42,0.00,,,0.00,VWS V14.01,2013-01-20 11:23:00,
2013-01-20 06:29:00,34.3,13.6,28.88,NNW,341,0.0,0.0,42,0.00,,,0.00,VWS V14.01,2013-01-20 11:29:00,
2013-01-20 06:34:00,34.5,13.8,28.88,NNW,341,0.0,0.0,42,0.00,,,0.00,VWS V14.01,2013-01-20 11:34:00,
2013-01-20 06:40:00,34.5,13.8,28.88,North,351,0.0,2.7,42,0.00,,,0.00,VWS V14.01,2013-01-20 11:40:00,
2013-01-20 06:45:00,34.5,13.8,28.88,North,0,3.1,3.6,42,0.00,,,0.00,VWS V14.01,2013-01-20 11:45:00,
2013-01-20 06:51:00,34.3,13.6,28.88,NNW,346,0.0,4.9,42,0.00,,,0.00,VWS V14.01,2013-01-20 11:51:00,
2013-01-20 06:57:00,34.5,14.3,28.88,NE,39,3.6,3.6,43,0.00,,,0.00,VWS V14.01,2013-01-20 11:57:00,
2013-01-20 07:02:00,34.5,14.3,28.88,NNW,346,0.0,0.0,43,0.00,,,0.00,VWS V14.01,2013-01-20 12:02:00,
2013-01-20 07:08:00,34.5,14.3,28.88,North,2,0.0,0.0,43,0.00,,,0.00,VWS V14.01,2013-01-20 12:08:00,
2013-01-20 07:13:00,34.3,14.2,28.88,NNW,346,0.0,0.0,43,0.00,,,0.00,VWS V14.01,2013-01-20 12:13:00,
2013-01-20 07:19:00,34.3,14.2,28.88,North,3,0.0,5.4,43,0.00,,,0.00,VWS V14.01,2013-01-20 12:19:00,
2013-01-20 07:24:00,34.5,14.3,28.88,NNW,340,0.0,0.0,43,0.00,,,0.00,VWS V14.01,2013-01-20 12:24:00,
2013-01-20 07:30:00,34.5,14.3,28.88,North,351,0.0,3.6,43,0.00,,,0.00,VWS V14.01,2013-01-20 12:30:00,
2013-01-20 07:36:00,34.5,14.3,28.88,SSE,160,0.0,3.6,43,0.00,,,0.00,VWS V14.01,2013-01-20 12:36:00,
2013-01-20 07:41:00,34.9,14.1,28.88,NNW,331,0.0,2.7,42,0.00,,,0.00,VWS V14.01,2013-01-20 12:41:00,
2013-01-20 07:47:00,35.1,14.3,28.88,North,0,0.0,0.0,42,0.00,,,0.00,VWS V14.01,2013-01-20 12:47:00,
2013-01-20 07:53:00,35.4,14.6,28.88,NE,53,0.0,3.1,42,0.00,,,0.00,VWS V14.01,2013-01-20 12:53:00,
2013-01-20 07:58:00,35.8,14.4,28.88,NNW,341,0.0,0.0,41,0.00,,,0.00,VWS V14.01,2013-01-20 12:58:00,
2013-01-20 08:04:00,36.1,14.7,28.88,NNE,30,0.0,0.0,41,0.00,,,0.00,VWS V14.01,2013-01-20 13:04:00,
2013-01-20 08:09:00,36.3,14.3,28.88,North,351,3.6,3.6,40,0.00,,,0.00,VWS V14.01,2013-01-20 13:09:00,
2013-01-20 08:15:00,36.9,14.8,28.88,WNW,299,0.0,0.0,40,0.00,,,0.00,VWS V14.01,2013-01-20 13:15:00,
2013-01-20 08:21:00,37.2,14.6,28.88,NW,320,0.0,4.9,39,0.00,,,0.00,VWS V14.01,2013-01-20 13:21:00,
2013-01-20 08:26:00,37.6,14.3,28.88,NNE,14,0.0,0.0,38,0.00,,,0.00,VWS V14.01,2013-01-20 13:26:00,
2013-01-20 08:31:00,37.9,14.0,28.88,NNW,343,0.0,0.0,37,0.00,,,0.00,VWS V14.01,2013-01-20 13:31:00,
2013-01-20 08:37:00,38.3,13.7,28.88,NNW,329,0.0,0.0,36,0.00,,,0.00,VWS V14.01,2013-01-20 13:37:00,
2013-01-20 08:43:00,38.7,12.7,28.88,North,351,0.0,2.7,34,0.00,,,0.00,VWS V14.01,2013-01-20 13:43:00,
2013-01-20 08:48:00,38.8,12.2,28.88,NE,54,0.0,0.0,33,0.00,,,0.00,VWS V14.01,2013-01-20 13:48:00,
2013-01-20 08:53:00,39.2,12.5,28.88,ENE,70,0.0,3.6,33,0.00,,,0.00,VWS V14.01,2013-01-20 13:53:00,
2013-01-20 08:59:00,39.4,12.7,28.88,NNW,335,0.0,0.0,33,0.00,,,0.00,VWS V14.01,2013-01-20 13:59:00,
2013-01-20 09:05:00,39.4,12.0,28.88,NW,309,0.0,0.0,32,0.00,,,0.00,VWS V14.01,2013-01-20 14:05:00,
2013-01-20 09:10:00,39.6,12.1,28.88,South,178,0.0,0.0,32,0.00,,,0.00,VWS V14.01,2013-01-20 14:10:00,
2013-01-20 09:16:00,39.7,12.3,28.88,ENE,71,0.0,0.0,32,0.00,,,0.00,VWS V14.01,2013-01-20 14:16:00,
2013-01-20 09:21:00,40.1,11.9,28.88,WNW,294,0.0,0.0,31,0.00,,,0.00,VWS V14.01,2013-01-20 14:21:00,
2013-01-20 09:27:00,40.3,11.3,28.88,ESE,113,0.0,0.0,30,0.00,,,0.00,VWS V14.01,2013-01-20 14:27:00,
2013-01-20 09:33:00,40.6,11.6,28.88,SSW,211,0.0,4.0,30,0.00,,,0.00,VWS V14.01,2013-01-20 14:33:00,
2013-01-20 09:38:00,41.0,12.0,28.88,NW,318,0.0,0.0,30,0.00,,,0.00,VWS V14.01,2013-01-20 14:38:00,
2013-01-20 09:44:00,41.2,12.1,28.88,WSW,246,0.0,4.0,30,0.00,,,0.00,VWS V14.01,2013-01-20 14:44:00,
2013-01-20 09:49:00,41.5,11.7,28.88,NE,42,0.0,2.7,29,0.00,,,0.00,VWS V14.01,2013-01-20 14:49:00,
2013-01-20 09:55:00,41.9,12.0,28.88,SSE,154,0.0,0.0,29,0.00,,,0.00,VWS V14.01,2013-01-20 14:55:00,
2013-01-20 10:00:00,42.1,12.1,28.88,East,91,0.0,0.0,29,0.00,,,0.00,VWS V14.01,2013-01-20 15:00:00,
2013-01-20 10:06:00,42.3,12.3,28.88,ENE,59,0.0,3.1,29,0.00,,,0.00,VWS V14.01,2013-01-20 15:06:00,
2013-01-20 10:12:00,42.4,12.4,28.88,NW,313,0.0,3.6,29,0.00,,,0.00,VWS V14.01,2013-01-20 15:12:00,
2013-01-20 10:17:00,42.8,12.0,28.88,SE,136,0.0,3.1,28,0.00,,,0.00,VWS V14.01,2013-01-20 15:17:00,
2013-01-20 10:23:00,43.2,12.3,28.88,SW,235,0.0,4.5,28,0.00,,,0.00,VWS V14.01,2013-01-20 15:23:00,
2013-01-20 10:28:00,43.3,12.4,28.88,West,262,4.0,4.0,28,0.00,,,0.00,VWS V14.01,2013-01-20 15:28:00,
2013-01-20 10:34:00,43.5,12.6,28.85,SW,219,2.7,2.7,28,0.00,,,0.00,VWS V14.01,2013-01-20 15:34:00,
2013-01-20 10:40:00,43.5,12.6,28.85,SW,220,5.4,5.4,28,0.00,,,0.00,VWS V14.01,2013-01-20 15:40:00,
2013-01-20 10:45:00,43.7,12.8,28.85,SW,235,0.0,4.0,28,0.00,,,0.00,VWS V14.01,2013-01-20 15:45:00,
2013-01-20 10:50:00,44.1,13.1,28.85,WSW,241,0.0,4.5,28,0.00,,,0.00,VWS V14.01,2013-01-20 15:50:00,
2013-01-20 10:56:00,44.2,13.2,28.85,WNW,296,0.0,0.0,28,0.00,,,0.00,VWS V14.01,2013-01-20 15:56:00,
2013-01-20 11:02:00,44.8,12.9,28.85,East,87,0.0,3.6,27,0.00,,,0.00,VWS V14.01,2013-01-20 16:02:00,
2013-01-20 11:07:00,45.1,13.2,28.85,ESE,117,0.0,0.0,27,0.00,,,0.00,VWS V14.01,2013-01-20 16:07:00,
2013-01-20 11:12:00,45.1,13.2,28.85,North,351,5.4,6.7,27,0.00,,,0.00,VWS V14.01,2013-01-20 16:12:00,
2013-01-20 11:17:00,45.9,11.1,28.82,ESE,115,0.0,3.6,24,0.00,,,0.00,VWS V14.01,2013-01-20 16:17:00,
2013-01-20 11:23:00,46.2,11.4,28.82,ESE,109,0.0,5.8,24,0.00,,,0.00,VWS V14.01,2013-01-20 16:23:00,
2013-01-20 11:28:00,46.6,11.7,28.82,ENE,67,4.5,4.5,24,0.00,,,0.00,VWS V14.01,2013-01-20 16:28:00,
2013-01-20 11:34:00,46.9,10.1,28.82,ESE,115,4.9,6.9,22,0.00,,,0.00,VWS V14.01,2013-01-20 16:34:00,
2013-01-20 11:39:00,47.1,10.2,28.82,SE,139,0.0,4.0,22,0.00,,,0.00,VWS V14.01,2013-01-20 16:39:00,
2013-01-20 11:45:00,47.3,9.4,28.82,NE,50,3.1,5.4,21,0.00,,,0.00,VWS V14.01,2013-01-20 16:45:00,
2013-01-20 11:50:00,47.5,9.5,28.82,SE,138,3.1,7.4,21,0.00,,,0.00,VWS V14.01,2013-01-20 16:50:00,
2013-01-20 11:56:00,47.3,9.4,28.82,ENE,70,0.0,4.0,21,0.00,,,0.00,VWS V14.01,2013-01-20 16:56:00,
2013-01-20 12:02:00,47.3,9.4,28.82,SSW,212,3.6,5.4,21,0.00,,,0.00,VWS V14.01,2013-01-20 17:02:00,
2013-01-20 12:07:00,47.7,9.7,28.82,North,351,3.6,4.0,21,0.00,,,0.00,VWS V14.01,2013-01-20 17:07:00,
2013-01-20 12:13:00,47.7,7.4,28.82,ESE,120,2.7,3.6,19,0.00,,,0.00,VWS V14.01,2013-01-20 17:13:00,
2013-01-20 12:18:00,47.8,7.6,28.82,East,92,2.7,5.8,19,0.00,,,0.00,VWS V14.01,2013-01-20 17:18:00,
2013-01-20 12:24:00,47.8,7.6,28.82,NE,44,3.1,4.0,19,0.00,,,0.00,VWS V14.01,2013-01-20 17:24:00,
2013-01-20 12:29:00,47.7,7.4,28.82,North,1,3.1,5.8,19,0.00,,,0.00,VWS V14.01,2013-01-20 17:29:00,
2013-01-20 12:35:00,47.3,7.1,28.82,East,85,3.1,5.4,19,0.00,,,0.00,VWS V14.01,2013-01-20 17:35:00,
2013-01-20 12:41:00,47.1,7.0,28.82,SSE,158,0.0,3.6,19,0.00,,,0.00,VWS V14.01,2013-01-20 17:41:00,
2013-01-20 12:46:00,46.6,6.5,28.82,East,100,0.0,4.0,19,0.00,,,0.00,VWS V14.01,2013-01-20 17:46:00,
2013-01-20 12:51:00,46.0,6.1,28.82,WNW,285,2.7,4.9,19,0.00,,,0.00,VWS V14.01,2013-01-20 17:51:00,
2013-01-20 12:57:00,45.7,5.8,28.82,SE,138,3.6,4.9,19,0.00,,,0.00,VWS V14.01,2013-01-20 17:57:00,
2013-01-20 13:03:00,45.3,6.6,28.82,NW,326,4.9,5.8,20,0.00,,,0.00,VWS V14.01,2013-01-20 18:03:00,
2013-01-20 13:08:00,45.3,6.6,28.82,ENE,62,0.0,0.0,20,0.00,,,0.00,VWS V14.01,2013-01-20 18:08:00,
2013-01-20 13:14:00,45.1,6.5,28.82,SSE,156,4.0,6.7,20,0.00,,,0.00,VWS V14.01,2013-01-20 18:14:00,
2013-01-20 13:19:00,45.3,6.6,28.82,WSW,239,0.0,4.5,20,0.00,,,0.00,VWS V14.01,2013-01-20 18:19:00,
2013-01-20 13:25:00,45.5,6.8,28.82,SE,145,2.7,2.7,20,0.00,,,0.00,VWS V14.01,2013-01-20 18:25:00,
2013-01-20 13:30:00,45.9,5.9,28.82,SE,142,4.0,4.5,19,0.00,,,0.00,VWS V14.01,2013-01-20 18:30:00,
2013-01-20 13:36:00,46.0,6.1,28.82,NW,304,3.6,8.3,19,0.00,,,0.00,VWS V14.01,2013-01-20 18:36:00,
2013-01-20 13:42:00,45.9,5.9,28.82,SE,140,0.0,2.7,19,0.00,,,0.00,VWS V14.01,2013-01-20 18:42:00,
2013-01-20 13:47:00,45.7,5.8,28.82,North,0,0.0,5.8,19,0.00,,,0.00,VWS V14.01,2013-01-20 18:47:00,
2013-01-20 13:53:00,45.5,5.7,28.82,NE,36,0.0,3.6,19,0.00,,,0.00,VWS V14.01,2013-01-20 18:53:00,
2013-01-20 13:58:00,45.3,6.6,28.82,NNW,331,0.0,0.0,20,0.00,,,0.00,VWS V14.01,2013-01-20 18:58:00,
2013-01-20 14:04:00,45.3,6.6,28.82,SE,146,0.0,4.0,20,0.00,,,0.00,VWS V14.01,2013-01-20 19:04:00,
2013-01-20 14:09:00,45.3,6.6,28.82,West,275,0.0,0.0,20,0.00,,,0.00,VWS V14.01,2013-01-20 19:09:00,
2013-01-20 14:15:00,44.8,6.2,28.85,ENE,75,3.1,4.0,20,0.00,,,0.00,VWS V14.01,2013-01-20 19:15:00,
2013-01-20 14:21:00,45.3,6.6,28.85,NW,310,0.0,2.7,20,0.00,,,0.00,VWS V14.01,2013-01-20 19:21:00,
2013-01-20 14:26:00,45.0,6.3,28.85,NNE,29,2.7,4.9,20,0.00,,,0.00,VWS V14.01,2013-01-20 19:26:00,
2013-01-20 14:31:00,45.1,6.5,28.85,ENE,57,5.4,5.4,20,0.00,,,0.00,VWS V14.01,2013-01-20 19:31:00,
2013-01-20 14:37:00,45.0,6.3,28.85,West,271,0.0,0.0,20,0.00,,,0.00,VWS V14.01,2013-01-20 19:37:00,
2013-01-20 14:42:00,44.4,5.9,28.85,ENE,78,0.0,3.1,20,0.00,,,0.00,VWS V14.01,2013-01-20 19:42:00,
2013-01-20 14:48:00,43.9,5.4,28.85,East,98,0.0,0.0,20,0.00,,,0.00,VWS V14.01,2013-01-20 19:48:00,
2013-01-20 14:54:00,43.5,5.1,28.85,SSE,166,3.1,4.5,20,0.00,,,0.00,VWS V14.01,2013-01-20 19:54:00,
2013-01-20 14:59:00,43.3,5.0,28.85,ESE,112,0.0,0.0,20,0.00,,,0.00,VWS V14.01,2013-01-20 19:59:00,
2013-01-20 15:05:00,43.3,5.0,28.85,North,0,0.0,0.0,20,0.00,,,0.00,VWS V14.01,2013-01-20 20:05:00,
2013-01-20 15:10:00,43.2,4.8,28.85,NNW,330,3.6,6.7,20,0.00,,,0.00,VWS V14.01,2013-01-20 20:10:00,
2013-01-20 15:16:00,43.2,4.8,28.88,NNE,17,0.0,4.0,20,0.00,,,0.00,VWS V14.01,2013-01-20 20:16:00,
2013-01-20 15:22:00,43.0,4.7,28.88,WNW,297,2.7,4.9,20,0.00,,,0.00,VWS V14.01,2013-01-20 20:22:00,
2013-01-20 15:27:00,42.6,4.4,28.88,NNW,329,4.0,6.3,20,0.00,,,0.00,VWS V14.01,2013-01-20 20:27:00,
2013-01-20 15:33:00,43.0,4.7,28.88,ENE,70,0.0,3.6,20,0.00,,,0.00,VWS V14.01,2013-01-20 20:33:00,
2013-01-20 15:38:00,43.0,4.7,28.88,NE,43,0.0,4.5,20,0.00,,,0.00,VWS V14.01,2013-01-20 20:38:00,
2013-01-20 15:44:00,42.6,4.4,28.88,NNW,327,0.0,0.0,20,0.00,,,0.00,VWS V14.01,2013-01-20 20:44:00,
2013-01-20 15:49:00,42.3,4.1,28.88,SE,141,0.0,3.1,20,0.00,,,0.00,VWS V14.01,2013-01-20 20:49:00,
2013-01-20 15:55:00,42.1,3.9,28.88,ENE,57,3.1,4.5,20,0.00,,,0.00,VWS V14.01,2013-01-20 20:55:00,
2013-01-20 16:00:00,41.7,4.7,28.91,South,179,3.1,6.3,21,0.00,,,0.00,VWS V14.01,2013-01-20 21:00:00,
2013-01-20 16:06:00,41.7,4.7,28.91,NNE,31,4.0,4.9,21,0.00,,,0.00,VWS V14.01,2013-01-20 21:06:00,
2013-01-20 16:11:00,41.4,4.4,28.91,North,351,3.1,3.6,21,0.00,,,0.00,VWS V14.01,2013-01-20 21:11:00,
2013-01-20 16:17:00,41.0,4.1,28.91,North,2,3.1,3.1,21,0.00,,,0.00,VWS V14.01,2013-01-20 21:17:00,
2013-01-20 16:23:00,40.6,3.8,28.91,NNW,335,3.1,5.4,21,0.00,,,0.00,VWS V14.01,2013-01-20 21:23:00,
2013-01-20 16:28:00,40.6,3.8,28.91,ENE,76,3.1,5.4,21,0.00,,,0.00,VWS V14.01,2013-01-20 21:28:00,
2013-01-20 16:34:00,40.5,0.3,28.94,North,0,3.1,6.3,18,0.00,,,0.00,VWS V14.01,2013-01-20 21:34:00,
2013-01-20 16:39:00,39.7,-0.3,28.94,North,4,3.1,7.4,18,0.00,,,0.00,VWS V14.01,2013-01-20 21:39:00,
2013-01-20 16:45:00,39.4,-0.6,28.94,ENE,61,0.0,4.5,18,0.00,,,0.00,VWS V14.01,2013-01-20 21:45:00,
2013-01-20 16:50:00,38.8,2.3,28.94,WSW,258,3.1,3.1,21,0.00,,,0.00,VWS V14.01,2013-01-20 21:50:00,
2013-01-20 16:56:00,38.5,-1.3,28.94,NNW,337,0.0,3.6,18,0.00,,,0.00,VWS V14.01,2013-01-20 21:56:00,
2013-01-20 17:02:00,37.9,1.5,28.97,North,11,2.7,5.8,21,0.00,,,0.00,VWS V14.01,2013-01-20 22:02:00,
2013-01-20 17:07:00,37.6,1.2,28.97,NNW,332,4.0,4.9,21,0.00,,,0.00,VWS V14.01,2013-01-20 22:07:00,
2013-01-20 17:13:00,37.2,0.9,28.97,NE,45,0.0,4.0,21,0.00,,,0.00,VWS V14.01,2013-01-20 22:13:00,
2013-01-20 17:18:00,36.9,-1.5,28.97,WNW,293,3.6,6.7,19,0.00,,,0.00,VWS V14.01,2013-01-20 22:18:00,
2013-01-20 17:24:00,36.5,-1.8,28.97,NE,41,3.1,5.4,19,0.00,,,0.00,VWS V14.01,2013-01-20 22:24:00,
2013-01-20 17:29:00,36.1,-2.1,29.00,ENE,60,0.0,3.6,19,0.00,,,0.00,VWS V14.01,2013-01-20 22:29:00,
2013-01-20 17:35:00,35.8,-2.4,29.00,NNE,21,4.0,6.3,19,0.00,,,0.00,VWS V14.01,2013-01-20 22:35:00,
2013-01-20 17:40:00,35.4,-2.7,29.00,WSW,240,0.0,3.1,19,0.00,,,0.00,VWS V14.01,2013-01-20 22:40:00,
2013-01-20 17:46:00,35.2,-2.9,29.00,NNW,343,0.0,4.0,19,0.00,,,0.00,VWS V14.01,2013-01-20 22:46:00,
2013-01-20 17:51:00,35.1,-3.0,29.00,North,6,0.0,0.0,19,0.00,,,0.00,VWS V14.01,2013-01-20 22:51:00,
2013-01-20 17:57:00,34.9,-3.2,29.00,NNW,328,0.0,4.0,19,0.00,,,0.00,VWS V14.01,2013-01-20 22:57:00,
2013-01-20 18:03:00,34.5,-2.4,29.03,North,351,0.0,0.0,20,0.00,,,0.00,VWS V14.01,2013-01-20 23:03:00,
2013-01-20 18:08:00,34.3,-2.6,29.03,North,0,0.0,4.0,20,0.00,,,0.00,VWS V14.01,2013-01-20 23:08:00,
2013-01-20 18:14:00,34.0,-2.9,29.03,NNE,16,2.7,5.4,20,0.00,,,0.00,VWS V14.01,2013-01-20 23:14:00,
2013-01-20 18:19:00,33.8,-3.0,29.03,North,3,0.0,3.6,20,0.00,,,0.00,VWS V14.01,2013-01-20 23:19:00,
2013-01-20 18:25:00,33.8,-3.0,29.03,NNE,22,4.5,4.9,20,0.00,,,0.00,VWS V14.01,2013-01-20 23:25:00,
2013-01-20 18:30:00,33.6,-3.2,29.03,ENE,66,0.0,4.0,20,0.00,,,0.00,VWS V14.01,2013-01-20 23:30:00,
2013-01-20 18:36:00,33.4,-3.3,29.03,ESE,113,0.0,0.0,20,0.00,,,0.00,VWS V14.01,2013-01-20 23:36:00,
2013-01-20 18:42:00,33.3,-3.5,29.03,West,262,2.7,4.5,20,0.00,,,0.00,VWS V14.01,2013-01-20 23:42:00,
2013-01-20 18:47:00,33.3,-3.5,29.03,WNW,302,0.0,0.0,20,0.00,,,0.00,VWS V14.01,2013-01-20 23:47:00,
2013-01-20 18:53:00,32.9,-3.8,29.03,ENE,62,0.0,0.0,20,0.00,,,0.00,VWS V14.01,2013-01-20 23:53:00,
2013-01-20 18:58:00,32.7,-3.9,29.03,NE,52,0.0,0.0,20,0.00,,,0.00,VWS V14.01,2013-01-20 23:58:00,
2013-01-20 19:04:00,32.5,-4.1,29.06,North,9,0.0,0.0,20,0.00,,,0.00,VWS V14.01,2013-01-21 00:04:00,
2013-01-20 19:10:00,32.4,-4.2,29.06,NNW,344,0.0,0.0,20,0.00,,,0.00,VWS V14.01,2013-01-21 00:10:00,
2013-01-20 19:16:00,32.2,-4.4,29.06,NNE,19,0.0,0.0,20,0.00,,,0.00,VWS V14.01,2013-01-21 00:16:00,
2013-01-20 19:22:00,32.0,-4.5,29.06,North,351,0.0,0.0,20,0.00,,,0.00,VWS V14.01,2013-01-21 00:22:00,
2013-01-20 19:27:00,31.8,-4.7,29.06,North,0,0.0,0.0,20,0.00,,,0.00,VWS V14.01,2013-01-21 00:27:00,
2013-01-20 19:33:00,31.6,-4.8,29.06,NNE,13,0.0,0.0,20,0.00,,,0.00,VWS V14.01,2013-01-21 00:33:00,
2013-01-20 19:38:00,31.5,-5.0,29.06,North,351,0.0,2.7,20,0.00,,,0.00,VWS V14.01,2013-01-21 00:38:00,
2013-01-20 19:44:00,31.5,-2.0,29.09,ESE,113,0.0,0.0,23,0.00,,,0.00,VWS V14.01,2013-01-21 00:44:00,
2013-01-20 19:49:00,31.3,-2.2,29.09,NW,314,0.0,0.0,23,0.00,,,0.00,VWS V14.01,2013-01-21 00:49:00,
2013-01-20 19:55:00,31.1,-5.3,29.09,NNW,332,0.0,3.6,20,0.00,,,0.00,VWS V14.01,2013-01-21 00:55:00,
2013-01-20 20:00:00,31.1,-5.3,29.09,WNW,286,0.0,0.0,20,0.00,,,0.00,VWS V14.01,2013-01-21 01:00:00,
2013-01-20 20:06:00,30.7,-5.6,29.09,ESE,113,0.0,3.1,20,0.00,,,0.00,VWS V14.01,2013-01-21 01:06:00,
2013-01-20 20:11:00,30.6,-5.7,29.09,East,100,0.0,0.0,20,0.00,,,0.00,VWS V14.01,2013-01-21 01:11:00,
2013-01-20 20:17:00,30.6,-5.7,29.09,North,0,0.0,0.0,20,0.00,,,0.00,VWS V14.01,2013-01-21 01:17:00,
2013-01-20 20:23:00,30.4,-5.9,29.09,NNW,331,0.0,0.0,20,0.00,,,0.00,VWS V14.01,2013-01-21 01:23:00,
2013-01-20 20:28:00,30.4,-5.9,29.09,NNW,345,0.0,0.0,20,0.00,,,0.00,VWS V14.01,2013-01-21 01:28:00,
2013-01-20 20:34:00,30.2,-6.0,29.09,North,8,0.0,4.5,20,0.00,,,0.00,VWS V14.01,2013-01-21 01:34:00,
2013-01-20 20:39:00,30.0,-6.2,29.09,North,6,0.0,3.1,20,0.00,,,0.00,VWS V14.01,2013-01-21 01:39:00,
2013-01-20 20:45:00,29.8,-6.3,29.12,SE,139,0.0,0.0,20,0.00,,,0.00,VWS V14.01,2013-01-21 01:45:00,
2013-01-20 20:50:00,29.7,-3.6,29.12,East,100,0.0,0.0,23,0.00,,,0.00,VWS V14.01,2013-01-21 01:50:00,
2013-01-20 20:56:00,29.7,-3.6,29.12,West,271,0.0,0.0,23,0.00,,,0.00,VWS V14.01,2013-01-21 01:56:00,
2013-01-20 21:02:00,29.5,-3.7,29.12,North,5,0.0,2.7,23,0.00,,,0.00,VWS V14.01,2013-01-21 02:02:00,
2013-01-20 21:07:00,29.3,-5.8,29.12,NE,55,0.0,3.1,21,0.00,,,0.00,VWS V14.01,2013-01-21 02:07:00,
2013-01-20 21:13:00,28.9,-4.2,29.12,NNW,331,0.0,0.0,23,0.00,,,0.00,VWS V14.01,2013-01-21 02:13:00,
2013-01-20 21:18:00,28.8,-4.3,29.12,East,94,0.0,0.0,23,0.00,,,0.00,VWS V14.01,2013-01-21 02:18:00,
2013-01-20 21:24:00,28.8,-4.3,29.12,North,0,0.0,0.0,23,0.00,,,0.00,VWS V14.01,2013-01-21 02:24:00,
2013-01-20 21:29:00,28.6,-4.5,29.12,SE,128,0.0,0.0,23,0.00,,,0.00,VWS V14.01,2013-01-21 02:29:00,
2013-01-20 21:35:00,28.4,-4.7,29.12,North,0,0.0,0.0,23,0.00,,,0.00,VWS V14.01,2013-01-21 02:35:00,
2013-01-20 21:40:00,28.4,-4.7,29.12,North,0,0.0,0.0,23,0.00,,,0.00,VWS V14.01,2013-01-21 02:40:00,
2013-01-20 21:46:00,28.2,-4.8,29.15,North,0,0.0,0.0,23,0.00,,,0.00,VWS V14.01,2013-01-21 02:46:00,
2013-01-20 21:52:00,28.0,-5.0,29.15,NNW,332,0.0,5.4,23,0.00,,,0.00,VWS V14.01,2013-01-21 02:52:00,
2013-01-20 21:57:00,28.0,-6.8,29.15,WNW,288,0.0,2.7,21,0.00,,,0.00,VWS V14.01,2013-01-21 02:57:00,
2013-01-20 22:03:00,27.7,-7.2,29.15,NNE,18,0.0,0.0,21,0.00,,,0.00,VWS V14.01,2013-01-21 03:03:00,
2013-01-20 22:08:00,27.3,-7.4,29.15,NNE,16,0.0,0.0,21,0.00,,,0.00,VWS V14.01,2013-01-21 03:08:00,
2013-01-20 22:14:00,27.3,-7.4,29.15,NNE,27,0.0,0.0,21,0.00,,,0.00,VWS V14.01,2013-01-21 03:14:00,
2013-01-20 22:19:00,27.1,-7.6,29.15,NNW,345,0.0,0.0,21,0.00,,,0.00,VWS V14.01,2013-01-21 03:19:00,
2013-01-20 22:25:00,27.0,-7.8,29.15,North,0,0.0,0.0,21,0.00,,,0.00,VWS V14.01,2013-01-21 03:25:00,
2013-01-20 22:30:00,26.8,-7.9,29.15,NNE,12,0.0,3.6,21,0.00,,,0.00,VWS V14.01,2013-01-21 03:30:00,
2013-01-20 22:36:00,26.4,-8.2,29.15,NNW,345,4.0,6.3,21,0.00,,,0.00,VWS V14.01,2013-01-21 03:36:00,
2013-01-20 22:42:00,26.2,-8.4,29.15,North,351,4.9,4.9,21,0.00,,,0.00,VWS V14.01,2013-01-21 03:42:00,
2013-01-20 22:47:00,26.2,-8.4,29.15,NNW,331,2.7,5.4,21,0.00,,,0.00,VWS V14.01,2013-01-21 03:47:00,
2013-01-20 22:53:00,26.1,-8.5,29.15,North,1,0.0,6.9,21,0.00,,,0.00,VWS V14.01,2013-01-21 03:53:00,
2013-01-20 22:58:00,25.9,-8.7,29.15,North,0,0.0,4.0,21,0.00,,,0.00,VWS V14.01,2013-01-21 03:58:00,
2013-01-20 23:05:00,25.7,-8.8,29.15,NW,323,2.7,2.7,21,0.00,,,0.00,VWS V14.01,2013-01-21 04:05:00,
2013-01-20 23:10:00,25.7,-7.9,29.15,NW,318,0.0,0.0,22,0.00,,,0.00,VWS V14.01,2013-01-21 04:10:00,
2013-01-20 23:16:00,25.5,-8.0,29.15,ENE,67,0.0,4.9,22,0.00,,,0.00,VWS V14.01,2013-01-21 04:16:00,
2013-01-20 23:22:00,25.5,-8.0,29.15,North,7,0.0,3.1,22,0.00,,,0.00,VWS V14.01,2013-01-21 04:22:00,
2013-01-20 23:27:00,25.3,-8.2,29.15,North,9,3.1,6.7,22,0.00,,,0.00,VWS V14.01,2013-01-21 04:27:00,
2013-01-20 23:33:00,25.3,-8.2,29.15,NE,37,0.0,0.0,22,0.00,,,0.00,VWS V14.01,2013-01-21 04:33:00,
2013-01-20 23:38:00,25.3,-8.2,29.15,East,89,0.0,0.0,22,0.00,,,0.00,VWS V14.01,2013-01-21 04:38:00,
2013-01-20 23:44:00,25.3,-8.2,29.15,ESE,107,2.7,4.0,22,0.00,,,0.00,VWS V14.01,2013-01-21 04:44:00,
2013-01-20 23:49:00,25.3,-8.2,29.15,North,351,0.0,0.0,22,0.00,,,0.00,VWS V14.01,2013-01-21 04:49:00,
2013-01-20 23:55:00,25.2,-8.3,29.15,ENE,57,0.0,0.0,22,0.00,,,0.00,VWS V14.01,2013-01-21 04:55:00,